TimeCDT,TemperatureF,Dew PointF,Humidity,Sea Level PressureIn,VisibilityMPH,Wind Direction,Wind SpeedMPH,Gust SpeedMPH,PrecipitationIn,Events,Conditions,WindDirDegrees,DateUTC
12:52 AM,41.0,35.1,79,29.81,-9999.0,NNW,11.5,-,N/A,,Unknown,330,2013-10-19 05:52:00
1:52 AM,37.0,34.0,89,29.82,-9999.0,NNE,5.8,-,N/A,,Unknown,20,2013-10-19 06:52:00
2:52 AM,35.1,32.0,89,29.84,-9999.0,North,4.6,-,N/A,,Unknown,360,2013-10-19 07:52:00
3:52 AM,35.1,30.9,85,29.83,-9999.0,North,3.5,-,N/A,,Unknown,360,2013-10-19 08:52:00
4:52 AM,34.0,30.0,85,29.83,-9999.0,Calm,Calm,-,N/A,,Unknown,0,2013-10-19 09:52:00
5:52 AM,33.1,30.0,89,29.84,-9999.0,WNW,4.6,-,N/A,,Unknown,300,2013-10-19 10:52:00
6:52 AM,34.0,30.0,85,29.86,-9999.0,WNW,4.6,-,N/A,,Unknown,290,2013-10-19 11:52:00
7:52 AM,35.1,30.9,85,29.86,-9999.0,West,3.5,-,N/A,,Unknown,280,2013-10-19 12:52:00
8:52 AM,34.0,32.0,92,29.87,-9999.0,West,3.5,-,N/A,,Unknown,270,2013-10-19 13:52:00
9:52 AM,36.0,33.1,89,29.85,-9999.0,WNW,3.5,-,N/A,,Unknown,300,2013-10-19 14:52:00
10:52 AM,37.0,33.1,86,29.84,-9999.0,Calm,Calm,-,N/A,,Unknown,0,2013-10-19 15:52:00
11:52 AM,39.0,34.0,82,29.83,-9999.0,Calm,Calm,-,N/A,,Unknown,0,2013-10-19 16:52:00
12:52 PM,42.1,36.0,79,29.81,-9999.0,SSW,5.8,-,N/A,,Unknown,210,2013-10-19 17:52:00
1:52 PM,44.1,37.0,76,29.78,-9999.0,SSW,8.1,-,N/A,,Unknown,200,2013-10-19 18:52:00
2:52 PM,44.1,37.0,76,29.76,-9999.0,SSE,5.8,-,N/A,,Unknown,160,2013-10-19 19:52:00
3:52 PM,46.9,37.9,71,29.74,-9999.0,SSE,8.1,-,N/A,,Unknown,160,2013-10-19 20:52:00
4:52 PM,48.0,37.9,68,29.72,-9999.0,SSE,8.1,-,N/A,,Unknown,150,2013-10-19 21:52:00
5:52 PM,48.0,39.0,71,29.70,-9999.0,SE,6.9,-,N/A,,Unknown,130,2013-10-19 22:52:00
6:52 PM,44.1,39.0,82,29.69,-9999.0,ESE,4.6,-,N/A,,Unknown,110,2013-10-19 23:52:00
7:52 PM,43.0,37.9,82,29.68,-9999.0,ESE,6.9,-,N/A,,Unknown,120,2013-10-20 00:52:00
8:52 PM,43.0,37.9,82,29.66,-9999.0,Calm,Calm,-,N/A,,Unknown,0,2013-10-20 01:52:00
9:52 PM,43.0,39.9,89,29.65,-9999.0,East,3.5,-,N/A,,Unknown,100,2013-10-20 02:52:00
10:52 PM,43.0,42.1,97,29.64,-9999.0,East,3.5,-,0.02,,Unknown,90,2013-10-20 03:52:00
11:52 PM,44.1,42.1,93,29.62,-9999.0,NNE,4.6,-,0.02,,Unknown,30,2013-10-20 04:52:00